Regional Weather Roundup
Issued by NWS Upton, NY

Current Version | Previous Version | Graphics & Text | Print | Product List | Glossary Off
Versions: 1 2 3 4 5 6 7 8 9 10 11 12 13 14 15 16 17 18 19 20 21 22 23 24 25 26 27 28 29 30 31 32 33 34 35 36 37 38 39 40 41 42 43 44 45 46 47 48 49 50

000
ASUS41 KOKX 241818
RWROKX

REGIONAL WEATHER ROUNDUP
NATIONAL WEATHER SERVICE NEW YORK NY
200 PM EDT SUN MAY 24 2015

NOTE: "FAIR" INDICATES FEW OR NO CLOUDS BELOW 12,000 FEET WITH NO
SIGNIFICANT WEATHER AND/OR OBSTRUCTIONS TO VISIBILITY.

NYZ071-072-176-178-NJZ106-104-241900-
NEW YORK CITY METRO AREA


CITY           SKY/WX    TMP DP  RH WIND       PRES   REMARKS
CENTRAL PARK   PTSUNNY   80  38  22 VRB5      30.30F
LAGUARDIA APRT PTSUNNY   79  33  19 W7        30.27F
KENNEDY INTL   PTSUNNY   71  53  52 S17       30.31F
NEWARK/LIBERTY PTSUNNY   82  39  21 W9        30.28F
BRNX BOT. GARD   N/A     77  37  24 SW12      30.30F
TETERBORO      MOSUNNY   79  40  24 S12G18    30.26F
$$

NYZ177-179-078>081-241900-
LONG ISLAND NEW YORK

CITY           SKY/WX    TMP DP  RH WIND       PRES   REMARKS
FARMINGDALE    PTSUNNY   69  53  56 S15       30.31F
ISLIP          CLOUDY    68  51  54 SW15      30.29F
SHIRLEY        CLOUDY    70  52  52 S13G21    30.31F
WESTHAMPTON    PTSUNNY   67  52  58 SW12      30.32F
MONTAUK POINT    N/A     66  52  60 SW8G16    30.30F
$$

NYZ052-065-067-241900-
HUDSON VALLEY

CITY           SKY/WX    TMP DP  RH WIND       PRES   REMARKS
WHITE PLAINS   PTSUNNY   75  34  22 W6G16     30.27F
NEWBURGH       MOSUNNY   75  43  31 SW12G17   30.28F
MONTGOMERY     MOSUNNY   78  42  27 VRB6      30.25F
POUGHKEEPSIE   MOSUNNY   79  38  22 SW9       30.24F
ALBANY         PTSUNNY   80  39  23 W13G22    30.21F
$$

NJZ001-105-106-008-010-013-015-019>022-104-241900-
NEW JERSEY

CITY           SKY/WX    TMP DP  RH WIND       PRES   REMARKS
NEWARK/LIBERTY PTSUNNY   82  39  21 W9        30.28F
TETERBORO      MOSUNNY   79  40  24 S12G18    30.26F
CALDWELL       MOSUNNY   79  36  21 NW8       30.28F
MORRISTOWN     PTSUNNY   81  39  22 W5G20     30.28F
SOMERVILLE     SUNNY     80  40  23 VRB3      30.26F
SUSSEX         MOSUNNY   78  38  23 VRB7      30.28F
ANDOVER          N/A     78  40  25 SW7       30.28F
TRENTON        SUNNY     79  48  33 SW10G17   30.30F
MILLVILLE      MOSUNNY   75  56  51 SW8       30.34F
ATLANTIC CITY  MOSUNNY   75  51  43 S17G26    30.33F
WRIGHTSTOWN    MOSUNNY   78  52  39 SW12G23   30.28F
TOMS RIVER     PTSUNNY  N/A N/A N/A W13G20    30.30F
BELMAR         MOSUNNY   79  50  36 W8G16     30.30F
$$

PAZ047>061-062-071-241900-
EASTERN PENNSYLVANIA

CITY           SKY/WX    TMP DP  RH WIND       PRES   REMARKS
PHILADELPHIA   PTSUNNY   77  51  40 SW13      30.32F
ALLENTOWN      MOSUNNY   80  38  22 SW14      30.29F
SCRANTON       SUNNY     78  37  22 SW10G18   30.28F
$$

CTZ002-004>006-009-010-012-RIZ004-006-007-MAZ004-011-015-241900-
SOUTHERN NEW ENGLAND
 IN CT

CITY           SKY/WX    TMP DP  RH WIND       PRES   REMARKS
BRADLEY INTL   PTSUNNY   81  38  21 S16       30.21F
HARTFORD       MOSUNNY   79  38  22 SW13G23   30.23F
DANBURY        MOSUNNY   75  34  22 W7G17     30.28F
WTRBRY/OXFORD  PTSUNNY   75  39  27 SW7G16    30.29F
BRIDGEPORT     PTSUNNY   75  45  34 SW14      30.27F
MERIDEN        MOSUNNY   79  33  19 SW10      30.24F
NEW HAVEN      PTSUNNY   72  42  34 SW13G21   30.27F
CHESTER        FAIR      73  37  27 W10G17    30.27F
GROTON         SUNNY     65  48  54 SW10      30.27F
WILLIMANTIC    SUNNY     79  34  19 SW12G21   30.23F

 IN RI

CITY           SKY/WX    TMP DP  RH WIND       PRES   REMARKS
PROVIDENCE     MOSUNNY   81  37  20 SW16G22   30.22F
BLOCK ISLAND   SUNNY     61  50  67 SW24      30.30F
WESTERLY       SUNNY     69  46  43 S10       30.28F

 IN MA

CITY           SKY/WX    TMP DP  RH WIND       PRES   REMARKS
BOSTON         SUNNY     81  37  20 SW17G23   30.18F
WORCESTER      SUNNY     76  36  23 W13G23    30.24F
WESTFIELD      SUNNY     82  35  18 W9        30.21
PROVINCETOWN   SUNNY     70  48  46 SW18G26   30.21S
NANTUCKET      SUNNY     61  51  70 SW20      30.30F
$$

ANZ330-335-338-340-345-350-353-355-241900-
COASTAL MARINE OBSERVATIONS


STATION/POSITION TIME  SKY/WX   TEMP    WIND        PRES    VSBY  WAVE
                                AIR SEA DIR/SP/G                  HT/PER
                 (UTC)          (F)     (DEG/KT/KT) (MB)    (MI)  (FT/S)
NY HARB ENTRANCE 1750            58 55  190/ 14/ 16 1026.0          2/ 4
4S FIRE IS       1703               54                N/A           3/ 4
20S FIRE ISLAND  1750            57 56  210/ 16/ 17 1026.6          2/ 3
GREAT SOUTH BAY  1700            59 63  230/ 14/ 17   N/A
23SW MTP         1750            56 53  230/ 17/ 19 1026.0          3/ 5
HUDSON CANYON    NOT AVBL
KINGS POINT      1700            72 60  290/  6/  8 1025.5
CENTRAL LI SOUND 1715            60 52  240/ 10/ 10   N/A
EASTERN LI SOUND 1700            56     220/  8/ 12   N/A
ROBBINS REEF     1700            74     280/ 12/ 16 1025.0
$$


>>>>>>>>>>>>>>>>>>>>>>>>>>>> KEY <<<<<<<<<<<<<<<<<<<<<<<<<<<
>                                                          <
>     SKY/WX - SKY CONDITION/PRESENT WEATHER               <
>     TMP    - TEMPERATURE IN FAHRENHEIT                   <
>     DP     - DEWPOINT IN FAHRENHEIT                      <
>     RH     - RELATIVE HUMIDITY IN PERCENT                <
>     WIND   - DIRECTION AND SPEED IN MPH                  <
>     PRES   - MEAN SEA LEVEL PRESSURE IN INCHES OF HG     <
>     WCI    - WIND CHILL INDEX                            <
>     VSB    - VISIBILITY IN MILES                         <
>     HX     - HEAT INDEX                                  <
>     TC     - TEMPERATURE IN CELSIUS                      <
>     VRB    - VARIABLE WIND DIRECTION                     <
>                                                          <
>>>>>>>>>>>>>>>>>>>>>>>>>>>> KEY <<<<<<<<<<<<<<<<<<<<<<<<<<<




USA.gov is the U.S. government's official web portal to all federal, state and local government web resources and services.